Погода в Норильске

Погода в Норильске : погода сейчас, прогноз погоды и архив. Всё, что Вы хотите узнать о погоде в Норильске!

Поиск расширенной информации на нашем сайте:

Другие новости

Новости СМИ2

Главная страница сайта

Новости сайта

03.07.2017

Напоминаем, что на нашем специализированном сайте Метеоцентр.Азия вы можете получить высокодетализированные автоматические прогнозы погоды по пунктам России, СНГ и мира в авиационном формате (включающие направление и скорость ветра, видимость, явления погоды, количество и форму облачности, нижнюю и верхнюю границу облачности).

Рекомендуем: Рамблер топ100 строительство и ремонт москва.

Погода в Норильске - сегодня

Время (UTC), дата Ветер
(°,м/с) 
Видим.   Явления Облачность Т
(°С)
Тd
(°С)
f(%) Тe
(°С)
Pmin
(гПа)
dP
(гПа)
Po
(мм)
O2
(г/м3)
Тmin Tmax R s Состояние
почвы
21 17.02.18 090 (В) 4000 м  слаб. снег  10/10 2000 м 
[Ns]
-21 -23.5 80 -28  1022.1  -0.3  760  333           
00 18.02.18 090 (В) 4000 м  слаб. снег  10/0 верхняя 
[Cs]
-21 -23.5 80 -29  1021.1  -1  759  333  -21.3    0.4  89  неравномерный
сухой снег
100% 
03 18.02.18 100 (В) 20000 м  {снег}  9/9 2000 м средняя 
[Ac trans]
-21.1 -23.6 80 -29  1021.1  759  333           
06 18.02.18 090 (В) 2000 м  снег  10/10 2000 м 
[Ns]
-20.4 -23 80 -28  1021.1  759  332           
09 18.02.18 090 (В) 20000 м  позёмок{снег}  10/4 2000 м средняя, верхняя 
[Ac lent|Cs]
-20.3 -22.9 80 -28  1020.9  -0.2  759  332           
12 18.02.18 120 (ЮВ) 10 км  позёмок{снег}  10/4 2000 м средняя, верхняя 
[Ac trans|Cs]
-21.5 -24 80 -28  1020.5  -0.4  759  334    -20.1     
18 18.02.18 130 (ЮВ) 20000 м    9/0 верхняя 
[Cs]
-25.2 -27.7 80 -31  1019.6  758  338           
21 18.02.18 130 (ЮВ) 10 км  позёмок  4/0 верхняя 
[Ci fib]
-25.5 -28 80 -33  1019.3  -0.4  758  339           
00 19.02.18 120 (ЮВ) 8{10}  10 км  позёмок  ясно 
-25.2 -27.7 80 -35  1018.2  -1  757  338  -26.2      87  неравномерный
сухой снег
100% 
03 19.02.18 130 (ЮВ) 20000 м  позёмок  4/3 2000 м средняя, верхняя 
[Ac lent|Ci fib]
-25.8 -29.7 70 -33  1018.9  0.6  757  339           
06 19.02.18 170 (Ю) 20000 м    3/0 верхняя 
[Ci fib]
-27.1 -29.5 80 -32  1018.9  757  341           
09 19.02.18 130 (ЮВ) 20000 м    ясно 
-27.9 -30.3 80 -31  1019.5  0.6  758  342           
12 19.02.18 тихо ()   20000 м    ясно 
-29.3 -31.8 79 -29  1020.4  0.8  758  344    -25.2       
15 19.02.18 310 (СЗ) 20000 м    ясно 
-32.2 -34.6 79 -36  1020.8  0.4  759  349           
18 19.02.18 310 (СЗ) 20000 м    ясно 
-33.5 -35.9 79 -34  1021.4  0.5  759  351           
21 19.02.18 310 (СЗ) 20000 м    ясно 
-34 -36.2 80 -38  1021.7  0.3  759  351           
00 20.02.18 300 (СЗ) 4000 м  дымка  ясно 
-34.7 -37.7 74 -39  1022.8  760  353  -35      81  неравномерный
сухой снег
100% 
06 20.02.18 310 (СЗ) 2000 м  дымка  6/6 2000 м средняя 
[Ac trans]
-35.8 -38.1 79 -40  1024.6  1.3  761  355           
09 20.02.18 340 (С) 2000 м  дымка  4/4 2000 м средняя 
[Ac trans]
-35.6 -37.7 81 -42  1025.7  1.1  762  355           
12 20.02.18 320 (СЗ) 2000 м  дымка  ясно 
-35.7 -38.1 78 -40  1027.9  2.2  764  356    -34.6       
15 20.02.18 320 (СЗ) 2000 м  дымка  ясно 
-36.5 -38.8 79 -38  1029.5  1.6  765  358           
18 20.02.18 320 (СЗ) 2000 м  дымка  ясно 
-36.4 -38.8 78 -37  1030  0.5  765  358           
21 20.02.18 330 (СЗ) 2000 м  дымка  ясно 
-35.9 -38.1 80 -40  1030.2  0.2  766  357           
00 21.02.18 340 (С) 2000 м  дымка  4/4 2000 м средняя 
[Ac trans]
-35.9 -38.1 80 -40  1030.2  766  357  -37.6      81  неравномерный
сухой снег
100% 
03 21.02.18 тихо ()   2000 м    3/3 2000 м средняя 
[Ac trans]
-36.8 -39.1 79 -37  1029.7  -0.6  765  358           
Время (UTC), дата Ветер
(°,м/с) 
Видим.   Явления Облачность Т
(°С)
Тd
(°С)
f(%) Тe
(°С)
Pmin
(гПа)
dP
(гПа)
Po
(мм)
O2
(г/м3)
Тmin Tmax R s Состояние
почвы

Для получения пояснительной информации подведите курсор к названию столбца.

ПОГОДА в Норильске - архив

Всё, что Вы хотите узнать о погоде в Норильске - удобно и подробно!

Выберите нужную дату (начиная с 1 января 2015* года) и нажмите кнопку "Найти".
Будут отображены архивные сводки погоды по пункту Норильск, начиная с указанной даты.


Отображать данные в формате CSV (для использования в таблицах Excel)


Внимание! Наш архив погоды предназначен исключительно для личного некоммерческого использования в познавательных целях. Если Вам необходимы официальные справки о состоянии погоды (для производственных, юридических, коммерческих и т.п. целей), обращайтесь в органы Росгидромета.

*Примечание: данная дата относится к архиву по метеостанциям СССР (Россия, СНГ, Балтия).
Архив по метеостанциям Зарубежной Европы и Азии (кроме Китая) хранится 10 дней, по другим регионам земного шара (Китай, Африка, Америка, Австралия, Океания) - 1 день.

Норильск - район местоположения метеостанции


Название, широта, долгота, высота метеостанции:
Норильск (Алыкель) 69.3°ш. 87.2°д. 175 м над ур. моря [Российская Федерация]

Дополнительная информация

В oтличие oт бoльшинства пoгoдных сайтoв мы публикуем пoдрoбную метеoинфoрмацию в детальнoм прoфессиoнальнoм фoрмате.

Характеристики температуры и влажнoсти вoздуха измеряются на высoте 2 м в тени вдали oт зданий и деревьев.
Скoрoсть ветра измеряется на высoте 10 м (на урoвне рoста челoвека скoрoсть ветра ниже в 1.5-2 раза). Если метеoстанция нахoдится в гoрoде или в лесу, тo скoрoсть ветра занижена на 2-4 м/с пo сравнению с oткрытым местoм. Скoрoсть ветра над акватoриями крупных рек и oзёр, а также на вершинах хoлмoв на 2-5 м/с выше, чем в oбычных услoвиях.
Атмoсфернoе давление в разных тoчках местнoсти мoжет значительнo oтличаться oт давления на метеoстанции, в зависимoсти oт услoвий рельефа (при пoдъёме на 10 м давление пoнижается примернo на 1 мм рт.ст.).